Time,TemperatureF,DewpointF,PressureIn,WindDirection,WindDirectionDegrees,WindSpeedMPH,WindSpeedGustMPH,Humidity,HourlyPrecipIn,Conditions,Clouds,dailyrainin,SoftwareType,DateUTC
2013-10-21 00:00:00,34.0,27.5,30.21,NNW,338,1.0,-999.0,77,0.00,,,0.00,Wunderground v.1.15,2013-10-21 05:00:00,
2013-10-21 00:05:00,34.0,27.5,30.21,NNW,338,1.0,-999.0,77,0.00,,,0.00,Wunderground v.1.15,2013-10-21 05:05:00,
2013-10-21 00:10:00,34.0,27.5,30.21,NNW,338,1.0,-999.0,77,0.00,,,0.00,Wunderground v.1.15,2013-10-21 05:10:00,
2013-10-21 00:15:00,34.0,27.5,30.21,NNW,338,1.0,-999.0,77,0.00,,,0.00,Wunderground v.1.15,2013-10-21 05:15:00,
2013-10-21 00:20:00,34.0,27.5,30.21,NNW,338,1.0,-999.0,77,0.00,,,0.00,Wunderground v.1.15,2013-10-21 05:20:00,
2013-10-21 00:25:00,34.0,27.5,30.21,NNW,338,1.0,-999.0,77,0.00,,,0.00,Wunderground v.1.15,2013-10-21 05:25:00,
2013-10-21 00:30:00,34.0,27.5,30.21,NNW,338,1.0,-999.0,77,0.00,,,0.00,Wunderground v.1.15,2013-10-21 05:30:00,
2013-10-21 00:35:00,34.0,27.5,30.21,NNW,338,1.0,-999.0,77,0.00,,,0.00,Wunderground v.1.15,2013-10-21 05:35:00,
2013-10-21 00:40:00,34.0,27.5,30.21,NNW,338,1.0,-999.0,77,0.00,,,0.00,Wunderground v.1.15,2013-10-21 05:40:00,
2013-10-21 00:45:00,32.8,26.7,30.20,NNW,338,1.0,-999.0,78,0.00,,,0.00,Wunderground v.1.15,2013-10-21 05:45:00,
2013-10-21 00:50:00,32.8,26.7,30.20,NNW,338,1.0,-999.0,78,0.00,,,0.00,Wunderground v.1.15,2013-10-21 05:50:00,
2013-10-21 00:55:00,32.8,26.7,30.20,NNW,338,1.0,-999.0,78,0.00,,,0.00,Wunderground v.1.15,2013-10-21 05:55:00,
2013-10-21 01:00:00,32.8,26.7,30.20,NNW,338,1.0,-999.0,78,0.00,,,0.00,Wunderground v.1.15,2013-10-21 06:00:00,
2013-10-21 01:05:00,32.8,26.7,30.20,NNW,338,1.0,-999.0,78,0.00,,,0.00,Wunderground v.1.15,2013-10-21 06:05:00,
2013-10-21 01:10:00,32.8,26.7,30.20,NNW,338,1.0,-999.0,78,0.00,,,0.00,Wunderground v.1.15,2013-10-21 06:10:00,
2013-10-21 01:15:00,32.5,27.0,30.21,NNW,338,0.0,-999.0,80,0.00,,,0.00,Wunderground v.1.15,2013-10-21 06:15:00,
2013-10-21 01:20:00,32.5,27.0,30.21,NNW,338,0.0,-999.0,80,0.00,,,0.00,Wunderground v.1.15,2013-10-21 06:20:00,
2013-10-21 01:25:00,32.5,27.0,30.21,NNW,338,0.0,-999.0,80,0.00,,,0.00,Wunderground v.1.15,2013-10-21 06:25:00,
2013-10-21 01:30:00,32.5,27.0,30.21,NNW,338,0.0,-999.0,80,0.00,,,0.00,Wunderground v.1.15,2013-10-21 06:30:00,
2013-10-21 01:35:00,32.5,27.0,30.21,NNW,338,0.0,-999.0,80,0.00,,,0.00,Wunderground v.1.15,2013-10-21 06:35:00,
2013-10-21 01:40:00,32.5,27.0,30.21,NNW,338,0.0,-999.0,80,0.00,,,0.00,Wunderground v.1.15,2013-10-21 06:40:00,
2013-10-21 01:45:00,32.7,27.2,30.21,NNW,338,1.0,-999.0,80,0.00,,,0.00,Wunderground v.1.15,2013-10-21 06:45:00,
2013-10-21 01:50:00,32.7,27.2,30.21,NNW,338,1.0,-999.0,80,0.00,,,0.00,Wunderground v.1.15,2013-10-21 06:50:00,
2013-10-21 01:55:00,32.7,27.2,30.21,NNW,338,1.0,-999.0,80,0.00,,,0.00,Wunderground v.1.15,2013-10-21 06:55:00,
2013-10-21 02:00:00,32.7,27.2,30.21,NNW,338,1.0,-999.0,80,0.00,,,0.00,Wunderground v.1.15,2013-10-21 07:00:00,
2013-10-21 02:05:00,32.7,27.2,30.21,NNW,338,1.0,-999.0,80,0.00,,,0.00,Wunderground v.1.15,2013-10-21 07:05:00,
2013-10-21 02:10:00,32.7,27.2,30.21,NNW,338,1.0,-999.0,80,0.00,,,0.00,Wunderground v.1.15,2013-10-21 07:10:00,
2013-10-21 02:15:00,33.1,27.6,30.21,NNW,338,0.0,-999.0,80,0.00,,,0.00,Wunderground v.1.15,2013-10-21 07:15:00,
2013-10-21 02:20:00,33.1,27.6,30.21,NNW,338,0.0,-999.0,80,0.00,,,0.00,Wunderground v.1.15,2013-10-21 07:20:00,
2013-10-21 02:25:00,33.1,27.6,30.21,NNW,338,0.0,-999.0,80,0.00,,,0.00,Wunderground v.1.15,2013-10-21 07:25:00,
2013-10-21 02:30:00,33.1,27.6,30.21,NNW,338,0.0,-999.0,80,0.00,,,0.00,Wunderground v.1.15,2013-10-21 07:30:00,
2013-10-21 02:35:00,33.1,27.6,30.21,NNW,338,0.0,-999.0,80,0.00,,,0.00,Wunderground v.1.15,2013-10-21 07:35:00,
2013-10-21 02:40:00,33.1,27.6,30.21,NNW,338,0.0,-999.0,80,0.00,,,0.00,Wunderground v.1.15,2013-10-21 07:40:00,
2013-10-21 02:45:00,31.9,26.7,30.21,NNW,338,0.0,-999.0,81,0.00,,,0.00,Wunderground v.1.15,2013-10-21 07:45:00,
2013-10-21 02:50:00,31.9,26.7,30.21,NNW,338,0.0,-999.0,81,0.00,,,0.00,Wunderground v.1.15,2013-10-21 07:50:00,
2013-10-21 02:55:00,31.9,26.7,30.21,NNW,338,0.0,-999.0,81,0.00,,,0.00,Wunderground v.1.15,2013-10-21 07:55:00,
2013-10-21 03:00:00,31.9,26.7,30.21,NNW,338,0.0,-999.0,81,0.00,,,0.00,Wunderground v.1.15,2013-10-21 08:00:00,
2013-10-21 03:05:00,31.9,26.7,30.21,NNW,338,0.0,-999.0,81,0.00,,,0.00,Wunderground v.1.15,2013-10-21 08:05:00,
2013-10-21 03:10:00,31.9,26.7,30.21,NNW,338,0.0,-999.0,81,0.00,,,0.00,Wunderground v.1.15,2013-10-21 08:10:00,
2013-10-21 03:15:00,31.4,27.1,30.21,NNW,338,0.0,-999.0,84,0.00,,,0.00,Wunderground v.1.15,2013-10-21 08:15:00,
2013-10-21 03:20:00,31.4,27.1,30.21,NNW,338,0.0,-999.0,84,0.00,,,0.00,Wunderground v.1.15,2013-10-21 08:20:00,
2013-10-21 03:25:00,31.4,27.1,30.21,NNW,338,0.0,-999.0,84,0.00,,,0.00,Wunderground v.1.15,2013-10-21 08:25:00,
2013-10-21 03:30:00,31.4,27.1,30.21,NNW,338,0.0,-999.0,84,0.00,,,0.00,Wunderground v.1.15,2013-10-21 08:30:00,
2013-10-21 03:35:00,31.4,27.1,30.21,NNW,338,0.0,-999.0,84,0.00,,,0.00,Wunderground v.1.15,2013-10-21 08:35:00,
2013-10-21 03:40:00,31.4,27.1,30.21,NNW,338,0.0,-999.0,84,0.00,,,0.00,Wunderground v.1.15,2013-10-21 08:40:00,
2013-10-21 03:45:00,32.8,28.8,30.21,NNW,338,0.0,-999.0,85,0.00,,,0.00,Wunderground v.1.15,2013-10-21 08:45:00,
2013-10-21 03:50:00,32.8,28.8,30.21,NNW,338,0.0,-999.0,85,0.00,,,0.00,Wunderground v.1.15,2013-10-21 08:50:00,
2013-10-21 03:55:00,32.8,28.8,30.21,NNW,338,0.0,-999.0,85,0.00,,,0.00,Wunderground v.1.15,2013-10-21 08:55:00,
2013-10-21 04:00:00,32.8,28.8,30.21,NNW,338,0.0,-999.0,85,0.00,,,0.00,Wunderground v.1.15,2013-10-21 09:00:00,
2013-10-21 04:05:00,32.8,28.8,30.21,NNW,338,0.0,-999.0,85,0.00,,,0.00,Wunderground v.1.15,2013-10-21 09:05:00,
2013-10-21 04:10:00,32.8,28.8,30.21,NNW,338,0.0,-999.0,85,0.00,,,0.00,Wunderground v.1.15,2013-10-21 09:10:00,
2013-10-21 04:15:00,33.6,29.3,30.20,N/A,-737280,0.0,-999.0,84,0.00,,,0.00,Wunderground v.1.15,2013-10-21 09:15:00,
2013-10-21 04:20:00,33.6,29.3,30.20,N/A,-737280,0.0,-999.0,84,0.00,,,0.00,Wunderground v.1.15,2013-10-21 09:20:00,
2013-10-21 04:25:00,33.6,29.3,30.20,N/A,-737280,0.0,-999.0,84,0.00,,,0.00,Wunderground v.1.15,2013-10-21 09:25:00,
2013-10-21 04:30:00,33.6,29.3,30.20,N/A,-737280,0.0,-999.0,84,0.00,,,0.00,Wunderground v.1.15,2013-10-21 09:30:00,
2013-10-21 04:35:00,33.6,29.3,30.20,N/A,-737280,0.0,-999.0,84,0.00,,,0.00,Wunderground v.1.15,2013-10-21 09:35:00,
2013-10-21 04:40:00,33.6,29.3,30.20,N/A,-737280,0.0,-999.0,84,0.00,,,0.00,Wunderground v.1.15,2013-10-21 09:40:00,
2013-10-21 04:45:00,33.9,29.3,30.21,NNW,338,0.0,-999.0,83,0.00,,,0.00,Wunderground v.1.15,2013-10-21 09:45:00,
2013-10-21 04:50:00,33.9,29.3,30.21,NNW,338,0.0,-999.0,83,0.00,,,0.00,Wunderground v.1.15,2013-10-21 09:50:00,
2013-10-21 04:55:00,33.9,29.3,30.21,NNW,338,0.0,-999.0,83,0.00,,,0.00,Wunderground v.1.15,2013-10-21 09:55:00,
2013-10-21 05:00:00,33.9,29.3,30.21,NNW,338,0.0,-999.0,83,0.00,,,0.00,Wunderground v.1.15,2013-10-21 10:00:00,
2013-10-21 05:05:00,33.9,29.3,30.21,NNW,338,0.0,-999.0,83,0.00,,,0.00,Wunderground v.1.15,2013-10-21 10:05:00,
2013-10-21 05:10:00,33.9,29.3,30.21,NNW,338,0.0,-999.0,83,0.00,,,0.00,Wunderground v.1.15,2013-10-21 10:10:00,
2013-10-21 05:15:00,34.2,29.9,30.20,NNW,338,0.0,-999.0,84,0.00,,,0.00,Wunderground v.1.15,2013-10-21 10:15:00,
2013-10-21 05:20:00,34.2,29.9,30.20,NNW,338,0.0,-999.0,84,0.00,,,0.00,Wunderground v.1.15,2013-10-21 10:20:00,
2013-10-21 05:25:00,34.2,29.9,30.20,NNW,338,0.0,-999.0,84,0.00,,,0.00,Wunderground v.1.15,2013-10-21 10:25:00,
2013-10-21 05:30:00,34.2,29.9,30.20,NNW,338,0.0,-999.0,84,0.00,,,0.00,Wunderground v.1.15,2013-10-21 10:30:00,
2013-10-21 05:35:00,34.2,29.9,30.20,NNW,338,0.0,-999.0,84,0.00,,,0.00,Wunderground v.1.15,2013-10-21 10:35:00,
2013-10-21 05:40:00,34.2,29.9,30.20,NNW,338,0.0,-999.0,84,0.00,,,0.00,Wunderground v.1.15,2013-10-21 10:40:00,
2013-10-21 05:45:00,34.4,29.8,30.20,NNW,338,0.0,-999.0,83,0.00,,,0.00,Wunderground v.1.15,2013-10-21 10:45:00,
2013-10-21 05:50:00,34.4,29.8,30.20,NNW,338,0.0,-999.0,83,0.00,,,0.00,Wunderground v.1.15,2013-10-21 10:50:00,
2013-10-21 05:55:00,34.4,29.8,30.20,NNW,338,0.0,-999.0,83,0.00,,,0.00,Wunderground v.1.15,2013-10-21 10:55:00,
2013-10-21 06:00:00,34.4,29.8,30.20,NNW,338,0.0,-999.0,83,0.00,,,0.00,Wunderground v.1.15,2013-10-21 11:00:00,
2013-10-21 06:05:00,34.4,29.8,30.20,NNW,338,0.0,-999.0,83,0.00,,,0.00,Wunderground v.1.15,2013-10-21 11:05:00,
2013-10-21 06:10:00,34.4,29.8,30.20,NNW,338,0.0,-999.0,83,0.00,,,0.00,Wunderground v.1.15,2013-10-21 11:10:00,
2013-10-21 06:15:00,35.9,30.6,30.20,NNW,338,0.0,-999.0,81,0.00,,,0.00,Wunderground v.1.15,2013-10-21 11:15:00,
2013-10-21 06:20:00,35.9,30.6,30.20,NNW,338,0.0,-999.0,81,0.00,,,0.00,Wunderground v.1.15,2013-10-21 11:20:00,
2013-10-21 06:25:00,35.9,30.6,30.20,NNW,338,0.0,-999.0,81,0.00,,,0.00,Wunderground v.1.15,2013-10-21 11:25:00,
2013-10-21 06:30:00,35.9,30.6,30.20,NNW,338,0.0,-999.0,81,0.00,,,0.00,Wunderground v.1.15,2013-10-21 11:30:00,
2013-10-21 06:35:00,35.9,30.6,30.20,NNW,338,0.0,-999.0,81,0.00,,,0.00,Wunderground v.1.15,2013-10-21 11:35:00,
2013-10-21 06:40:00,35.9,30.6,30.20,NNW,338,0.0,-999.0,81,0.00,,,0.00,Wunderground v.1.15,2013-10-21 11:40:00,
2013-10-21 06:45:00,35.5,29.9,30.20,NNW,338,0.0,-999.0,80,0.00,,,0.00,Wunderground v.1.15,2013-10-21 11:45:00,
2013-10-21 06:50:00,35.5,29.9,30.20,NNW,338,0.0,-999.0,80,0.00,,,0.00,Wunderground v.1.15,2013-10-21 11:50:00,
2013-10-21 06:55:00,35.5,29.9,30.20,NNW,338,0.0,-999.0,80,0.00,,,0.00,Wunderground v.1.15,2013-10-21 11:55:00,
2013-10-21 07:00:00,35.5,29.9,30.20,NNW,338,0.0,-999.0,80,0.00,,,0.00,Wunderground v.1.15,2013-10-21 12:00:00,
2013-10-21 07:05:00,35.5,29.9,30.20,NNW,338,0.0,-999.0,80,0.00,,,0.00,Wunderground v.1.15,2013-10-21 12:05:00,
2013-10-21 07:10:00,35.5,29.9,30.20,NNW,338,0.0,-999.0,80,0.00,,,0.00,Wunderground v.1.15,2013-10-21 12:10:00,
2013-10-21 07:15:00,35.2,30.0,30.21,N/A,-737280,0.0,-999.0,81,0.00,,,0.00,Wunderground v.1.15,2013-10-21 12:15:00,
2013-10-21 07:20:00,35.2,30.0,30.21,N/A,-737280,0.0,-999.0,81,0.00,,,0.00,Wunderground v.1.15,2013-10-21 12:20:00,
2013-10-21 07:25:00,35.2,30.0,30.21,N/A,-737280,0.0,-999.0,81,0.00,,,0.00,Wunderground v.1.15,2013-10-21 12:25:00,
2013-10-21 07:30:00,35.2,30.0,30.21,N/A,-737280,0.0,-999.0,81,0.00,,,0.00,Wunderground v.1.15,2013-10-21 12:30:00,
2013-10-21 07:35:00,35.2,30.0,30.21,N/A,-737280,0.0,-999.0,81,0.00,,,0.00,Wunderground v.1.15,2013-10-21 12:35:00,
2013-10-21 07:40:00,35.2,30.0,30.21,N/A,-737280,0.0,-999.0,81,0.00,,,0.00,Wunderground v.1.15,2013-10-21 12:40:00,
2013-10-21 07:45:00,35.3,30.1,30.20,N/A,-737280,0.0,-999.0,81,0.00,,,0.00,Wunderground v.1.15,2013-10-21 12:45:00,
2013-10-21 07:50:00,35.3,30.1,30.20,N/A,-737280,0.0,-999.0,81,0.00,,,0.00,Wunderground v.1.15,2013-10-21 12:50:00,
2013-10-21 07:55:00,35.3,30.1,30.20,N/A,-737280,0.0,-999.0,81,0.00,,,0.00,Wunderground v.1.15,2013-10-21 12:55:00,
2013-10-21 08:05:00,35.3,30.1,30.20,N/A,-737280,0.0,-999.0,81,0.00,,,0.00,Wunderground v.1.15,2013-10-21 13:05:00,
2013-10-21 08:10:00,35.3,30.1,30.20,N/A,-737280,0.0,-999.0,81,0.00,,,0.00,Wunderground v.1.15,2013-10-21 13:10:00,
2013-10-21 08:15:00,35.8,30.5,30.20,NNW,338,0.0,-999.0,81,0.00,,,0.00,Wunderground v.1.15,2013-10-21 13:15:00,
2013-10-21 08:20:00,35.8,30.5,30.20,NNW,338,0.0,-999.0,81,0.00,,,0.00,Wunderground v.1.15,2013-10-21 13:20:00,
2013-10-21 08:25:00,35.8,30.5,30.20,NNW,338,0.0,-999.0,81,0.00,,,0.00,Wunderground v.1.15,2013-10-21 13:25:00,
2013-10-21 08:30:00,35.8,30.5,30.20,NNW,338,0.0,-999.0,81,0.00,,,0.00,Wunderground v.1.15,2013-10-21 13:30:00,
2013-10-21 08:35:00,35.8,30.5,30.20,NNW,338,0.0,-999.0,81,0.00,,,0.00,Wunderground v.1.15,2013-10-21 13:35:00,
2013-10-21 08:40:00,35.8,30.5,30.20,NNW,338,0.0,-999.0,81,0.00,,,0.00,Wunderground v.1.15,2013-10-21 13:40:00,
2013-10-21 08:45:00,38.4,32.1,30.21,NNW,338,2.0,-999.0,78,0.00,,,0.00,Wunderground v.1.15,2013-10-21 13:45:00,
2013-10-21 08:50:00,38.4,32.1,30.21,NNW,338,2.0,-999.0,78,0.00,,,0.00,Wunderground v.1.15,2013-10-21 13:50:00,
2013-10-21 08:55:00,38.4,32.1,30.21,NNW,338,2.0,-999.0,78,0.00,,,0.00,Wunderground v.1.15,2013-10-21 13:55:00,
2013-10-21 09:00:00,38.4,32.1,30.21,NNW,338,2.0,-999.0,78,0.00,,,0.00,Wunderground v.1.15,2013-10-21 14:00:00,
2013-10-21 09:05:00,38.4,32.1,30.21,NNW,338,2.0,-999.0,78,0.00,,,0.00,Wunderground v.1.15,2013-10-21 14:05:00,
2013-10-21 09:10:00,38.4,32.1,30.21,NNW,338,2.0,-999.0,78,0.00,,,0.00,Wunderground v.1.15,2013-10-21 14:10:00,
2013-10-21 09:15:00,40.1,33.5,30.22,WNW,293,3.0,-999.0,77,0.00,,,0.00,Wunderground v.1.15,2013-10-21 14:15:00,
2013-10-21 09:20:00,40.1,33.5,30.22,WNW,293,3.0,-999.0,77,0.00,,,0.00,Wunderground v.1.15,2013-10-21 14:20:00,
2013-10-21 09:25:00,40.1,33.5,30.22,WNW,293,3.0,-999.0,77,0.00,,,0.00,Wunderground v.1.15,2013-10-21 14:25:00,
2013-10-21 09:30:00,40.1,33.5,30.22,WNW,293,3.0,-999.0,77,0.00,,,0.00,Wunderground v.1.15,2013-10-21 14:30:00,
2013-10-21 09:35:00,40.1,33.5,30.22,WNW,293,3.0,-999.0,77,0.00,,,0.00,Wunderground v.1.15,2013-10-21 14:35:00,
2013-10-21 09:40:00,40.1,33.5,30.22,WNW,293,3.0,-999.0,77,0.00,,,0.00,Wunderground v.1.15,2013-10-21 14:40:00,
2013-10-21 09:45:00,42.0,34.3,30.22,WNW,293,5.0,-999.0,74,0.00,,,0.00,Wunderground v.1.15,2013-10-21 14:45:00,
2013-10-21 09:50:00,42.0,34.3,30.22,WNW,293,5.0,-999.0,74,0.00,,,0.00,Wunderground v.1.15,2013-10-21 14:50:00,
2013-10-21 09:55:00,42.0,34.3,30.22,WNW,293,5.0,-999.0,74,0.00,,,0.00,Wunderground v.1.15,2013-10-21 14:55:00,
2013-10-21 10:00:00,42.0,34.3,30.22,WNW,293,5.0,-999.0,74,0.00,,,0.00,Wunderground v.1.15,2013-10-21 15:00:00,
2013-10-21 10:05:00,42.0,34.3,30.22,WNW,293,5.0,-999.0,74,0.00,,,0.00,Wunderground v.1.15,2013-10-21 15:05:00,
2013-10-21 10:10:00,42.0,34.3,30.22,WNW,293,5.0,-999.0,74,0.00,,,0.00,Wunderground v.1.15,2013-10-21 15:10:00,
2013-10-21 10:15:00,42.9,34.5,30.22,WNW,293,5.0,-999.0,72,0.00,,,0.00,Wunderground v.1.15,2013-10-21 15:15:00,
2013-10-21 10:20:00,42.9,34.5,30.22,WNW,293,5.0,-999.0,72,0.00,,,0.00,Wunderground v.1.15,2013-10-21 15:20:00,
2013-10-21 10:25:00,42.9,34.5,30.22,WNW,293,5.0,-999.0,72,0.00,,,0.00,Wunderground v.1.15,2013-10-21 15:25:00,
2013-10-21 10:30:00,42.9,34.5,30.22,WNW,293,5.0,-999.0,72,0.00,,,0.00,Wunderground v.1.15,2013-10-21 15:30:00,
2013-10-21 10:35:00,42.9,34.5,30.22,WNW,293,5.0,-999.0,72,0.00,,,0.00,Wunderground v.1.15,2013-10-21 15:35:00,
2013-10-21 10:40:00,42.9,34.5,30.22,WNW,293,5.0,-999.0,72,0.00,,,0.00,Wunderground v.1.15,2013-10-21 15:40:00,
2013-10-21 10:45:00,44.4,35.2,30.22,WNW,293,5.0,-999.0,70,0.00,,,0.00,Wunderground v.1.15,2013-10-21 15:45:00,
2013-10-21 10:50:00,44.4,35.2,30.22,WNW,293,5.0,-999.0,70,0.00,,,0.00,Wunderground v.1.15,2013-10-21 15:50:00,
2013-10-21 10:55:00,44.4,35.2,30.22,WNW,293,5.0,-999.0,70,0.00,,,0.00,Wunderground v.1.15,2013-10-21 15:55:00,
2013-10-21 11:00:00,44.4,35.2,30.22,WNW,293,5.0,-999.0,70,0.00,,,0.00,Wunderground v.1.15,2013-10-21 16:00:00,
2013-10-21 11:05:00,44.4,35.2,30.22,WNW,293,5.0,-999.0,70,0.00,,,0.00,Wunderground v.1.15,2013-10-21 16:05:00,
2013-10-21 11:10:00,44.4,35.2,30.22,WNW,293,5.0,-999.0,70,0.00,,,0.00,Wunderground v.1.15,2013-10-21 16:10:00,
2013-10-21 11:15:00,46.0,35.7,30.21,WNW,293,4.0,-999.0,67,0.00,,,0.00,Wunderground v.1.15,2013-10-21 16:15:00,
2013-10-21 11:20:00,46.0,35.7,30.21,WNW,293,4.0,-999.0,67,0.00,,,0.00,Wunderground v.1.15,2013-10-21 16:20:00,
2013-10-21 11:25:00,46.0,35.7,30.21,WNW,293,4.0,-999.0,67,0.00,,,0.00,Wunderground v.1.15,2013-10-21 16:25:00,
2013-10-21 11:30:00,46.0,35.7,30.21,WNW,293,4.0,-999.0,67,0.00,,,0.00,Wunderground v.1.15,2013-10-21 16:30:00,
2013-10-21 11:35:00,46.0,35.7,30.21,WNW,293,4.0,-999.0,67,0.00,,,0.00,Wunderground v.1.15,2013-10-21 16:35:00,
2013-10-21 11:40:00,46.0,35.7,30.21,WNW,293,4.0,-999.0,67,0.00,,,0.00,Wunderground v.1.15,2013-10-21 16:40:00,
2013-10-21 11:45:00,48.8,36.4,30.20,West,270,4.0,-999.0,62,0.00,,,0.00,Wunderground v.1.15,2013-10-21 16:45:00,
2013-10-21 11:50:00,48.8,36.4,30.20,West,270,4.0,-999.0,62,0.00,,,0.00,Wunderground v.1.15,2013-10-21 16:50:00,
2013-10-21 11:55:00,48.8,36.4,30.20,West,270,4.0,-999.0,62,0.00,,,0.00,Wunderground v.1.15,2013-10-21 16:55:00,
2013-10-21 12:00:00,48.8,36.4,30.20,West,270,4.0,-999.0,62,0.00,,,0.00,Wunderground v.1.15,2013-10-21 17:00:00,
2013-10-21 12:05:00,48.8,36.4,30.20,West,270,4.0,-999.0,62,0.00,,,0.00,Wunderground v.1.15,2013-10-21 17:05:00,
2013-10-21 12:10:00,48.8,36.4,30.20,West,270,4.0,-999.0,62,0.00,,,0.00,Wunderground v.1.15,2013-10-21 17:10:00,
2013-10-21 12:15:00,51.1,35.9,30.20,WNW,293,4.0,-999.0,56,0.00,,,0.00,Wunderground v.1.15,2013-10-21 17:15:00,
2013-10-21 12:20:00,51.1,35.9,30.20,WNW,293,4.0,-999.0,56,0.00,,,0.00,Wunderground v.1.15,2013-10-21 17:20:00,
2013-10-21 12:25:00,51.1,35.9,30.20,WNW,293,4.0,-999.0,56,0.00,,,0.00,Wunderground v.1.15,2013-10-21 17:25:00,
2013-10-21 12:30:00,51.1,35.9,30.20,WNW,293,4.0,-999.0,56,0.00,,,0.00,Wunderground v.1.15,2013-10-21 17:30:00,
2013-10-21 12:35:00,51.1,35.9,30.20,WNW,293,4.0,-999.0,56,0.00,,,0.00,Wunderground v.1.15,2013-10-21 17:35:00,
2013-10-21 12:40:00,51.1,35.9,30.20,WNW,293,4.0,-999.0,56,0.00,,,0.00,Wunderground v.1.15,2013-10-21 17:40:00,
2013-10-21 12:45:00,53.1,34.9,30.19,WNW,293,5.0,-999.0,50,0.00,,,0.00,Wunderground v.1.15,2013-10-21 17:45:00,
2013-10-21 12:50:00,53.1,34.9,30.19,WNW,293,5.0,-999.0,50,0.00,,,0.00,Wunderground v.1.15,2013-10-21 17:50:00,
2013-10-21 12:55:00,53.1,34.9,30.19,WNW,293,5.0,-999.0,50,0.00,,,0.00,Wunderground v.1.15,2013-10-21 17:55:00,
2013-10-21 13:00:00,53.1,34.9,30.19,WNW,293,5.0,-999.0,50,0.00,,,0.00,Wunderground v.1.15,2013-10-21 18:00:00,
2013-10-21 13:05:00,53.1,34.9,30.19,WNW,293,5.0,-999.0,50,0.00,,,0.00,Wunderground v.1.15,2013-10-21 18:05:00,
2013-10-21 13:10:00,53.1,34.9,30.19,WNW,293,5.0,-999.0,50,0.00,,,0.00,Wunderground v.1.15,2013-10-21 18:10:00,
2013-10-21 13:15:00,54.8,32.7,30.17,West,270,6.0,-999.0,43,0.00,,,0.00,Wunderground v.1.15,2013-10-21 18:15:00,
2013-10-21 13:20:00,54.8,32.7,30.17,West,270,6.0,-999.0,43,0.00,,,0.00,Wunderground v.1.15,2013-10-21 18:20:00,
2013-10-21 13:25:00,54.8,32.7,30.17,West,270,6.0,-999.0,43,0.00,,,0.00,Wunderground v.1.15,2013-10-21 18:25:00,
2013-10-21 13:30:00,54.8,32.7,30.17,West,270,6.0,-999.0,43,0.00,,,0.00,Wunderground v.1.15,2013-10-21 18:30:00,
2013-10-21 13:35:00,54.8,32.7,30.17,West,270,6.0,-999.0,43,0.00,,,0.00,Wunderground v.1.15,2013-10-21 18:35:00,
2013-10-21 13:40:00,54.8,32.7,30.17,West,270,6.0,-999.0,43,0.00,,,0.00,Wunderground v.1.15,2013-10-21 18:40:00,
2013-10-21 13:45:00,56.6,31.9,30.15,WNW,293,5.0,-999.0,39,0.00,,,0.00,Wunderground v.1.15,2013-10-21 18:45:00,
2013-10-21 13:50:00,56.6,31.9,30.15,WNW,293,5.0,-999.0,39,0.00,,,0.00,Wunderground v.1.15,2013-10-21 18:50:00,
2013-10-21 13:55:00,56.6,31.9,30.15,WNW,293,5.0,-999.0,39,0.00,,,0.00,Wunderground v.1.15,2013-10-21 18:55:00,
2013-10-21 14:00:00,56.6,31.9,30.15,WNW,293,5.0,-999.0,39,0.00,,,0.00,Wunderground v.1.15,2013-10-21 19:00:00,
2013-10-21 14:05:00,56.6,31.9,30.15,WNW,293,5.0,-999.0,39,0.00,,,0.00,Wunderground v.1.15,2013-10-21 19:05:00,
2013-10-21 14:10:00,56.6,31.9,30.15,WNW,293,5.0,-999.0,39,0.00,,,0.00,Wunderground v.1.15,2013-10-21 19:10:00,
2013-10-21 14:15:00,57.9,32.4,30.14,West,270,7.0,-999.0,38,0.00,,,0.00,Wunderground v.1.15,2013-10-21 19:15:00,
2013-10-21 14:20:00,57.9,32.4,30.14,West,270,7.0,-999.0,38,0.00,,,0.00,Wunderground v.1.15,2013-10-21 19:20:00,
2013-10-21 14:25:00,57.9,32.4,30.14,West,270,7.0,-999.0,38,0.00,,,0.00,Wunderground v.1.15,2013-10-21 19:25:00,
2013-10-21 14:30:00,57.9,32.4,30.14,West,270,7.0,-999.0,38,0.00,,,0.00,Wunderground v.1.15,2013-10-21 19:30:00,
2013-10-21 14:35:00,57.9,32.4,30.14,West,270,7.0,-999.0,38,0.00,,,0.00,Wunderground v.1.15,2013-10-21 19:35:00,
2013-10-21 14:40:00,57.9,32.4,30.14,West,270,7.0,-999.0,38,0.00,,,0.00,Wunderground v.1.15,2013-10-21 19:40:00,
2013-10-21 14:45:00,58.5,33.6,30.12,WNW,293,6.0,-999.0,39,0.00,,,0.00,Wunderground v.1.15,2013-10-21 19:45:00,
2013-10-21 14:50:00,58.5,33.6,30.12,WNW,293,6.0,-999.0,39,0.00,,,0.00,Wunderground v.1.15,2013-10-21 19:50:00,
2013-10-21 14:55:00,58.5,33.6,30.12,WNW,293,6.0,-999.0,39,0.00,,,0.00,Wunderground v.1.15,2013-10-21 19:55:00,
2013-10-21 15:00:00,58.5,33.6,30.12,WNW,293,6.0,-999.0,39,0.00,,,0.00,Wunderground v.1.15,2013-10-21 20:00:00,
2013-10-21 15:05:00,58.5,33.6,30.12,WNW,293,6.0,-999.0,39,0.00,,,0.00,Wunderground v.1.15,2013-10-21 20:05:00,
2013-10-21 15:10:00,58.5,33.6,30.12,WNW,293,6.0,-999.0,39,0.00,,,0.00,Wunderground v.1.15,2013-10-21 20:10:00,
2013-10-21 15:15:00,59.0,35.9,30.11,West,270,7.0,-999.0,42,0.00,,,0.00,Wunderground v.1.15,2013-10-21 20:15:00,
2013-10-21 15:20:00,59.0,35.9,30.11,West,270,7.0,-999.0,42,0.00,,,0.00,Wunderground v.1.15,2013-10-21 20:20:00,
2013-10-21 15:25:00,59.0,35.9,30.11,West,270,7.0,-999.0,42,0.00,,,0.00,Wunderground v.1.15,2013-10-21 20:25:00,
2013-10-21 15:30:00,59.0,35.9,30.11,West,270,7.0,-999.0,42,0.00,,,0.00,Wunderground v.1.15,2013-10-21 20:30:00,
2013-10-21 15:35:00,59.0,35.9,30.11,West,270,7.0,-999.0,42,0.00,,,0.00,Wunderground v.1.15,2013-10-21 20:35:00,
2013-10-21 15:40:00,59.0,35.9,30.11,West,270,7.0,-999.0,42,0.00,,,0.00,Wunderground v.1.15,2013-10-21 20:40:00,
2013-10-21 15:45:00,60.2,37.6,30.10,WNW,293,7.0,-999.0,43,0.00,,,0.00,Wunderground v.1.15,2013-10-21 20:45:00,
2013-10-21 15:50:00,60.2,37.6,30.10,WNW,293,7.0,-999.0,43,0.00,,,0.00,Wunderground v.1.15,2013-10-21 20:50:00,
2013-10-21 15:55:00,60.2,37.6,30.10,WNW,293,7.0,-999.0,43,0.00,,,0.00,Wunderground v.1.15,2013-10-21 20:55:00,
2013-10-21 16:00:00,60.2,37.6,30.10,WNW,293,7.0,-999.0,43,0.00,,,0.00,Wunderground v.1.15,2013-10-21 21:00:00,
2013-10-21 16:05:00,60.2,37.6,30.10,WNW,293,7.0,-999.0,43,0.00,,,0.00,Wunderground v.1.15,2013-10-21 21:05:00,
2013-10-21 16:10:00,60.2,37.6,30.10,WNW,293,7.0,-999.0,43,0.00,,,0.00,Wunderground v.1.15,2013-10-21 21:10:00,
2013-10-21 16:15:00,60.3,37.7,30.09,WNW,293,8.0,-999.0,43,0.00,,,0.00,Wunderground v.1.15,2013-10-21 21:15:00,
2013-10-21 16:20:00,60.3,37.7,30.09,WNW,293,8.0,-999.0,43,0.00,,,0.00,Wunderground v.1.15,2013-10-21 21:20:00,
2013-10-21 16:25:00,60.3,37.7,30.09,WNW,293,8.0,-999.0,43,0.00,,,0.00,Wunderground v.1.15,2013-10-21 21:25:00,
2013-10-21 16:30:00,60.3,37.7,30.09,WNW,293,8.0,-999.0,43,0.00,,,0.00,Wunderground v.1.15,2013-10-21 21:30:00,
2013-10-21 16:35:00,60.3,37.7,30.09,WNW,293,8.0,-999.0,43,0.00,,,0.00,Wunderground v.1.15,2013-10-21 21:35:00,
2013-10-21 16:40:00,60.3,37.7,30.09,WNW,293,8.0,-999.0,43,0.00,,,0.00,Wunderground v.1.15,2013-10-21 21:40:00,
2013-10-21 16:45:00,60.1,38.1,30.09,West,270,7.0,-999.0,44,0.00,,,0.00,Wunderground v.1.15,2013-10-21 21:45:00,
2013-10-21 16:50:00,60.1,38.1,30.09,West,270,7.0,-999.0,44,0.00,,,0.00,Wunderground v.1.15,2013-10-21 21:50:00,
2013-10-21 16:55:00,60.1,38.1,30.09,West,270,7.0,-999.0,44,0.00,,,0.00,Wunderground v.1.15,2013-10-21 21:55:00,
2013-10-21 17:00:00,60.1,38.1,30.09,West,270,7.0,-999.0,44,0.00,,,0.00,Wunderground v.1.15,2013-10-21 22:00:00,
2013-10-21 17:05:00,60.1,38.1,30.09,West,270,7.0,-999.0,44,0.00,,,0.00,Wunderground v.1.15,2013-10-21 22:05:00,
2013-10-21 17:10:00,60.1,38.1,30.09,West,270,7.0,-999.0,44,0.00,,,0.00,Wunderground v.1.15,2013-10-21 22:10:00,
2013-10-21 17:15:00,59.8,37.8,30.08,WNW,293,7.0,-999.0,44,0.00,,,0.00,Wunderground v.1.15,2013-10-21 22:15:00,
2013-10-21 17:20:00,59.8,37.8,30.08,WNW,293,7.0,-999.0,44,0.00,,,0.00,Wunderground v.1.15,2013-10-21 22:20:00,
2013-10-21 17:25:00,59.8,37.8,30.08,WNW,293,7.0,-999.0,44,0.00,,,0.00,Wunderground v.1.15,2013-10-21 22:25:00,
2013-10-21 17:30:00,59.8,37.8,30.08,WNW,293,7.0,-999.0,44,0.00,,,0.00,Wunderground v.1.15,2013-10-21 22:30:00,
2013-10-21 17:35:00,59.8,37.8,30.08,WNW,293,7.0,-999.0,44,0.00,,,0.00,Wunderground v.1.15,2013-10-21 22:35:00,
2013-10-21 17:40:00,59.8,37.8,30.08,WNW,293,7.0,-999.0,44,0.00,,,0.00,Wunderground v.1.15,2013-10-21 22:40:00,
2013-10-21 17:45:00,59.0,38.2,30.08,West,270,7.0,-999.0,46,0.00,,,0.00,Wunderground v.1.15,2013-10-21 22:45:00,
2013-10-21 17:50:00,59.0,38.2,30.08,West,270,7.0,-999.0,46,0.00,,,0.00,Wunderground v.1.15,2013-10-21 22:50:00,
2013-10-21 17:55:00,59.0,38.2,30.08,West,270,7.0,-999.0,46,0.00,,,0.00,Wunderground v.1.15,2013-10-21 22:55:00,
2013-10-21 18:00:00,59.0,38.2,30.08,West,270,7.0,-999.0,46,0.00,,,0.00,Wunderground v.1.15,2013-10-21 23:00:00,
2013-10-21 18:05:00,59.0,38.2,30.08,West,270,7.0,-999.0,46,0.00,,,0.00,Wunderground v.1.15,2013-10-21 23:05:00,
2013-10-21 18:10:00,59.0,38.2,30.08,West,270,7.0,-999.0,46,0.00,,,0.00,Wunderground v.1.15,2013-10-21 23:10:00,
2013-10-21 18:15:00,57.9,39.4,30.09,WNW,293,8.0,-999.0,50,0.00,,,0.00,Wunderground v.1.15,2013-10-21 23:15:00,
2013-10-21 18:20:00,57.9,39.4,30.09,WNW,293,8.0,-999.0,50,0.00,,,0.00,Wunderground v.1.15,2013-10-21 23:20:00,
2013-10-21 18:25:00,57.9,39.4,30.09,WNW,293,8.0,-999.0,50,0.00,,,0.00,Wunderground v.1.15,2013-10-21 23:25:00,
2013-10-21 18:30:00,57.9,39.4,30.09,WNW,293,8.0,-999.0,50,0.00,,,0.00,Wunderground v.1.15,2013-10-21 23:30:00,
2013-10-21 18:35:00,57.9,39.4,30.09,WNW,293,8.0,-999.0,50,0.00,,,0.00,Wunderground v.1.15,2013-10-21 23:35:00,
2013-10-21 18:40:00,57.9,39.4,30.09,WNW,293,8.0,-999.0,50,0.00,,,0.00,Wunderground v.1.15,2013-10-21 23:40:00,
2013-10-21 18:45:00,55.2,39.3,30.09,WNW,293,5.0,-999.0,55,0.00,,,0.00,Wunderground v.1.15,2013-10-21 23:45:00,
2013-10-21 18:50:00,55.2,39.3,30.09,WNW,293,5.0,-999.0,55,0.00,,,0.00,Wunderground v.1.15,2013-10-21 23:50:00,
2013-10-21 18:55:00,55.2,39.3,30.09,WNW,293,5.0,-999.0,55,0.00,,,0.00,Wunderground v.1.15,2013-10-21 23:55:00,
2013-10-21 19:00:00,55.2,39.3,30.09,WNW,293,5.0,-999.0,55,0.00,,,0.00,Wunderground v.1.15,2013-10-22 00:00:00,
2013-10-21 19:05:00,55.2,39.3,30.09,WNW,293,5.0,-999.0,55,0.00,,,0.00,Wunderground v.1.15,2013-10-22 00:05:00,
2013-10-21 19:10:00,55.2,39.3,30.09,WNW,293,5.0,-999.0,55,0.00,,,0.00,Wunderground v.1.15,2013-10-22 00:10:00,
2013-10-21 19:15:00,54.1,39.6,30.10,WNW,293,3.0,-999.0,58,0.00,,,0.00,Wunderground v.1.15,2013-10-22 00:15:00,
2013-10-21 19:20:00,54.1,39.6,30.10,WNW,293,3.0,-999.0,58,0.00,,,0.00,Wunderground v.1.15,2013-10-22 00:20:00,
2013-10-21 19:25:00,54.1,39.6,30.10,WNW,293,3.0,-999.0,58,0.00,,,0.00,Wunderground v.1.15,2013-10-22 00:25:00,
2013-10-21 19:30:00,54.1,39.6,30.10,WNW,293,3.0,-999.0,58,0.00,,,0.00,Wunderground v.1.15,2013-10-22 00:30:00,
2013-10-21 19:35:00,54.1,39.6,30.10,WNW,293,3.0,-999.0,58,0.00,,,0.00,Wunderground v.1.15,2013-10-22 00:35:00,
2013-10-21 19:40:00,54.1,39.6,30.10,WNW,293,3.0,-999.0,58,0.00,,,0.00,Wunderground v.1.15,2013-10-22 00:40:00,
2013-10-21 19:45:00,51.5,39.3,30.10,West,270,1.0,-999.0,63,0.00,,,0.00,Wunderground v.1.15,2013-10-22 00:45:00,
2013-10-21 19:50:00,51.5,39.3,30.10,West,270,1.0,-999.0,63,0.00,,,0.00,Wunderground v.1.15,2013-10-22 00:50:00,
2013-10-21 19:55:00,51.5,39.3,30.10,West,270,1.0,-999.0,63,0.00,,,0.00,Wunderground v.1.15,2013-10-22 00:55:00,
2013-10-21 20:00:00,51.5,39.3,30.10,West,270,1.0,-999.0,63,0.00,,,0.00,Wunderground v.1.15,2013-10-22 01:00:00,
2013-10-21 20:05:00,51.5,39.3,30.10,West,270,1.0,-999.0,63,0.00,,,0.00,Wunderground v.1.15,2013-10-22 01:05:00,
2013-10-21 20:10:00,51.5,39.3,30.10,West,270,1.0,-999.0,63,0.00,,,0.00,Wunderground v.1.15,2013-10-22 01:10:00,
2013-10-21 20:15:00,50.2,39.3,30.10,West,270,0.0,-999.0,66,0.00,,,0.00,Wunderground v.1.15,2013-10-22 01:15:00,
2013-10-21 20:20:00,50.2,39.3,30.10,West,270,0.0,-999.0,66,0.00,,,0.00,Wunderground v.1.15,2013-10-22 01:20:00,
2013-10-21 20:25:00,50.2,39.3,30.10,West,270,0.0,-999.0,66,0.00,,,0.00,Wunderground v.1.15,2013-10-22 01:25:00,
2013-10-21 20:30:00,50.2,39.3,30.10,West,270,0.0,-999.0,66,0.00,,,0.00,Wunderground v.1.15,2013-10-22 01:30:00,
2013-10-21 20:35:00,50.2,39.3,30.10,West,270,0.0,-999.0,66,0.00,,,0.00,Wunderground v.1.15,2013-10-22 01:35:00,
2013-10-21 20:40:00,50.2,39.3,30.10,West,270,0.0,-999.0,66,0.00,,,0.00,Wunderground v.1.15,2013-10-22 01:40:00,
2013-10-21 20:45:00,48.8,39.4,30.10,N/A,-737280,0.0,-999.0,70,0.00,,,0.00,Wunderground v.1.15,2013-10-22 01:45:00,
2013-10-21 20:50:00,48.8,39.4,30.10,N/A,-737280,0.0,-999.0,70,0.00,,,0.00,Wunderground v.1.15,2013-10-22 01:50:00,
2013-10-21 20:55:00,48.8,39.4,30.10,N/A,-737280,0.0,-999.0,70,0.00,,,0.00,Wunderground v.1.15,2013-10-22 01:55:00,
2013-10-21 21:00:00,48.8,39.4,30.10,N/A,-737280,0.0,-999.0,70,0.00,,,0.00,Wunderground v.1.15,2013-10-22 02:00:00,
2013-10-21 21:05:00,48.8,39.4,30.10,N/A,-737280,0.0,-999.0,70,0.00,,,0.00,Wunderground v.1.15,2013-10-22 02:05:00,
2013-10-21 21:10:00,48.8,39.4,30.10,N/A,-737280,0.0,-999.0,70,0.00,,,0.00,Wunderground v.1.15,2013-10-22 02:10:00,
2013-10-21 21:15:00,47.4,38.8,30.10,N/A,-737280,0.0,-999.0,72,0.00,,,0.00,Wunderground v.1.15,2013-10-22 02:15:00,
2013-10-21 21:20:00,47.4,38.8,30.10,N/A,-737280,0.0,-999.0,72,0.00,,,0.00,Wunderground v.1.15,2013-10-22 02:20:00,
2013-10-21 21:25:00,47.4,38.8,30.10,N/A,-737280,0.0,-999.0,72,0.00,,,0.00,Wunderground v.1.15,2013-10-22 02:25:00,
2013-10-21 21:30:00,47.4,38.8,30.10,N/A,-737280,0.0,-999.0,72,0.00,,,0.00,Wunderground v.1.15,2013-10-22 02:30:00,
2013-10-21 21:35:00,47.4,38.8,30.10,N/A,-737280,0.0,-999.0,72,0.00,,,0.00,Wunderground v.1.15,2013-10-22 02:35:00,
2013-10-21 21:40:00,47.4,38.8,30.10,N/A,-737280,0.0,-999.0,72,0.00,,,0.00,Wunderground v.1.15,2013-10-22 02:40:00,
2013-10-21 21:45:00,47.2,39.3,30.11,West,270,0.0,-999.0,74,0.00,,,0.00,Wunderground v.1.15,2013-10-22 02:45:00,
2013-10-21 21:50:00,47.2,39.3,30.11,West,270,0.0,-999.0,74,0.00,,,0.00,Wunderground v.1.15,2013-10-22 02:50:00,
2013-10-21 21:55:00,47.2,39.3,30.11,West,270,0.0,-999.0,74,0.00,,,0.00,Wunderground v.1.15,2013-10-22 02:55:00,
2013-10-21 22:00:00,47.2,39.3,30.11,West,270,0.0,-999.0,74,0.00,,,0.00,Wunderground v.1.15,2013-10-22 03:00:00,
2013-10-21 22:05:00,47.2,39.3,30.11,West,270,0.0,-999.0,74,0.00,,,0.00,Wunderground v.1.15,2013-10-22 03:05:00,
2013-10-21 22:10:00,47.2,39.3,30.11,West,270,0.0,-999.0,74,0.00,,,0.00,Wunderground v.1.15,2013-10-22 03:10:00,
2013-10-21 22:15:00,47.0,39.1,30.10,N/A,-737280,0.0,-999.0,74,0.00,,,0.00,Wunderground v.1.15,2013-10-22 03:15:00,
2013-10-21 22:20:00,47.0,39.1,30.10,N/A,-737280,0.0,-999.0,74,0.00,,,0.00,Wunderground v.1.15,2013-10-22 03:20:00,
2013-10-21 22:25:00,47.0,39.1,30.10,N/A,-737280,0.0,-999.0,74,0.00,,,0.00,Wunderground v.1.15,2013-10-22 03:25:00,
2013-10-21 22:30:00,47.0,39.1,30.10,N/A,-737280,0.0,-999.0,74,0.00,,,0.00,Wunderground v.1.15,2013-10-22 03:30:00,
2013-10-21 22:35:00,47.0,39.1,30.10,N/A,-737280,0.0,-999.0,74,0.00,,,0.00,Wunderground v.1.15,2013-10-22 03:35:00,
2013-10-21 22:40:00,47.0,39.1,30.10,N/A,-737280,0.0,-999.0,74,0.00,,,0.00,Wunderground v.1.15,2013-10-22 03:40:00,
2013-10-21 22:45:00,46.2,39.1,30.10,N/A,-737280,0.0,-999.0,76,0.00,,,0.00,Wunderground v.1.15,2013-10-22 03:45:00,
2013-10-21 22:50:00,46.2,39.1,30.10,N/A,-737280,0.0,-999.0,76,0.00,,,0.00,Wunderground v.1.15,2013-10-22 03:50:00,
2013-10-21 22:55:00,46.2,39.1,30.10,N/A,-737280,0.0,-999.0,76,0.00,,,0.00,Wunderground v.1.15,2013-10-22 03:55:00,
2013-10-21 23:00:00,46.2,39.1,30.10,N/A,-737280,0.0,-999.0,76,0.00,,,0.00,Wunderground v.1.15,2013-10-22 04:00:00,
2013-10-21 23:05:00,46.2,39.1,30.10,N/A,-737280,0.0,-999.0,76,0.00,,,0.00,Wunderground v.1.15,2013-10-22 04:05:00,
2013-10-21 23:10:00,46.2,39.1,30.10,N/A,-737280,0.0,-999.0,76,0.00,,,0.00,Wunderground v.1.15,2013-10-22 04:10:00,
2013-10-21 23:15:00,47.0,39.1,30.10,West,270,0.0,-999.0,74,0.00,,,0.00,Wunderground v.1.15,2013-10-22 04:15:00,
2013-10-21 23:20:00,47.0,39.1,30.10,West,270,0.0,-999.0,74,0.00,,,0.00,Wunderground v.1.15,2013-10-22 04:20:00,
2013-10-21 23:25:00,47.0,39.1,30.10,West,270,0.0,-999.0,74,0.00,,,0.00,Wunderground v.1.15,2013-10-22 04:25:00,
2013-10-21 23:30:00,47.0,39.1,30.10,West,270,0.0,-999.0,74,0.00,,,0.00,Wunderground v.1.15,2013-10-22 04:30:00,
2013-10-21 23:35:00,47.0,39.1,30.10,West,270,0.0,-999.0,74,0.00,,,0.00,Wunderground v.1.15,2013-10-22 04:35:00,
2013-10-21 23:40:00,47.0,39.1,30.10,West,270,0.0,-999.0,74,0.00,,,0.00,Wunderground v.1.15,2013-10-22 04:40:00,
2013-10-21 23:45:00,48.6,39.3,30.09,West,270,0.0,-999.0,70,0.00,,,0.00,Wunderground v.1.15,2013-10-22 04:45:00,
2013-10-21 23:50:00,48.6,39.3,30.09,West,270,0.0,-999.0,70,0.00,,,0.00,Wunderground v.1.15,2013-10-22 04:50:00,
2013-10-21 23:55:00,48.6,39.3,30.09,West,270,0.0,-999.0,70,0.00,,,0.00,Wunderground v.1.15,2013-10-22 04:55:00,